This demonstration page uses our WeatherBlox Daily Observations layout. Learn more.

Left ArrowRight Arrow

39.29038, -76.61219

Hourly Observations for July 26, 2020

Temp ( °F °C ) Dew Point ( °F °C ) Humidity (%) Winds ( mph kmh ) Pressure ( in mb ) Visibility ( mi km ) Precip ( " mm )
12:54 am 00:54 Partly Cloudy 80 26.7 73 22.8 79 79 SW 3 6 30.08 1019 10 16 0.00 0.00
1:54 am 01:54 Partly Cloudy 79 26.1 73 22.8 82 82 SW 3 6 30.07 1018 10 16 0.00 0.00
2:54 am 02:54 Mostly Cloudy 79 26.1 73 22.8 82 82 Calm 30.07 1018 10 16 0.00 0.00
3:54 am 03:54 Mostly Clear 78 25.6 73 22.8 85 85 SSW 3 6 30.06 1018 10 16 0.00 0.00
4:54 am 04:54 Mostly Clear 77 25 73 22.8 88 88 SW 6 9 30.05 1018 10 16 0.00 0.00
5:54 am 05:54 Partly Cloudy 77 25 73 22.8 88 88 SW 3 6 30.06 1018 10 16 0.00 0.00
6:54 am 06:54 Mostly Sunny 78 25.6 74 23.3 87 87 SW 5 7 30.06 1018 10 16 0.00 0.00
7:54 am 07:54 Partly Cloudy 81 27.2 74 23.3 79 79 WSW 7 11 30.05 1018 10 16 0.00 0.00
8:54 am 08:54 Sunny 85 29.4 73 22.8 68 68 W 8 13 30.05 1018 10 16 0.00 0.00
9:54 am 09:54 Mostly Sunny 88 31.1 72 22.2 59 59 W 8 13 30.05 1018 10 16 0.00 0.00
10:54 am 10:54 Mostly Sunny 91 32.8 72 22.2 54 54 WNW 6 9 30.04 1017 10 16 0.00 0.00
11:54 am 11:54 Partly Cloudy 93 33.9 70 21.1 47 47 VRB 7 11 30.03 1017 10 16 0.00 0.00
12:54 pm 12:54 Mostly Cloudy 94 34.4 67 19.4 41 41 W 8 13 30.01 1016 10 16 0.00 0.00
1:54 pm 13:54 Partly Cloudy 95 35 67 19.4 40 40 W 10 17 30.01 1016 10 16 0.00 0.00
2:54 pm 14:54 Partly Cloudy 95 35 66 18.9 39 39 WNW 12 19 29.98 1015 10 16 0.00 0.00
3:54 pm 15:54 Partly Cloudy 95 35 65 18.3 37 37 W 10 17 29.98 1015 10 16 0.00 0.00
4:54 pm 16:54 Partly Cloudy 94 34.4 63 17.2 36 36 W 12 19 29.98 1015 10 16 0.00 0.00
5:54 pm 17:54 Partly Cloudy 94 34.4 63 17.2 36 36 W 10 17 29.96 1015 10 16 0.00 0.00
6:54 pm 18:54 Partly Cloudy 92 33.3 64 17.8 40 40 W 9 15 29.94 1014 10 16 0.00 0.00
7:54 pm 19:54 Mostly Cloudy 89 31.7 65 18.3 45 45 W 6 9 29.95 1014 10 16 0.00 0.00
8:54 pm 20:54 Partly Cloudy 88 31.1 65 18.3 46 46 SSW 6 9 29.95 1014 10 16 0.00 0.00
9:54 pm 21:54 Clear 85 29.4 66 18.9 53 53 SSW 6 9 29.95 1014 10 16 0.00 0.00
10:54 pm 22:54 Clear 81 27.2 68 20 65 65 Calm 29.94 1014 10 16 0.00 0.00
11:54 pm 23:54 Mostly Cloudy 78 25.6 69 20.6 74 74 SW 3 6 29.94 1014 10 16 0.00 0.00

Powered by AerisWeather